| time (UTC) | temp F | wind direction | speed knots | gust knots | rain 1hr in | rain 24hr in | rain mn in | humidity % | barometer mb |
| 20260507012502 | 56 | 250 | 12.2 | 18.2 | 0.00 | 0.04 | 0.04 | 93 | 1010.3 |
| 20260507012002 | 56 | 276 | 13.9 | 18.2 | 0.00 | 0.04 | 0.04 | 93 | 1010.3 |
| 20260507011502 | 56 | 248 | 13.0 | 16.5 | 0.00 | 0.04 | 0.04 | 93 | 1010.2 |
| 20260507011002 | 56 | 243 | 10.4 | 14.8 | 0.00 | 0.04 | 0.04 | 93 | 1010.2 |
| 20260507010502 | 56 | 249 | 11.3 | 15.6 | 0.00 | 0.04 | 0.04 | 93 | 1010.3 |
| 20260507010003 | 56 | 259 | 12.2 | 16.5 | 0.00 | 0.04 | 0.04 | 93 | 1010.3 |
| 20260507005502 | 56 | 250 | 13.0 | 19.1 | 0.00 | 0.04 | 0.04 | 93 | 1010.5 |
| 20260507005002 | 56 | 251 | 13.9 | 19.1 | 0.00 | 0.04 | 0.04 | 93 | 1010.7 |
| 20260507004501 | 56 | 250 | 11.3 | 17.4 | 0.00 | 0.04 | 0.04 | 93 | 1010.8 |
| 20260507004100 | 56 | 241 | 12.2 | 15.6 | 0.00 | 0.04 | 0.04 | 93 | 1010.6 |
| 20260507003600 | 56 | 263 | 10.4 | 17.4 | 0.00 | 0.04 | 0.04 | 93 | 1010.6 |
| 20260507003100 | 56 | 257 | 13.0 | 17.4 | 0.00 | 0.04 | 0.04 | 93 | 1010.6 |
| 20260507002559 | 56 | 248 | 12.2 | 17.4 | 0.00 | 0.04 | 0.04 | 93 | 1010.7 |
| 20260507002100 | 56 | 240 | 12.2 | 17.4 | 0.00 | 0.04 | 0.04 | 93 | 1010.6 |
| 20260507001621 | 56 | 251 | 12.2 | 16.5 | 0.00 | 0.04 | 0.04 | 93 | 1010.5 |
| 20260507001059 | 56 | 252 | 13.0 | 17.4 | 0.00 | 0.04 | 0.04 | 93 | 1010.6 |
| 20260507000600 | 56 | 242 | 13.0 | 19.1 | 0.00 | 0.04 | 0.04 | 93 | 1010.5 |
| 20260507000101 | 56 | 239 | 12.2 | 19.1 | 0.00 | 0.04 | 0.04 | 93 | 1010.3 |
| 20260506235600 | 56 | 252 | 13.0 | 17.4 | 0.00 | 0.04 | 0.04 | 93 | 1010.3 |
| 20260506235058 | 56 | 259 | 13.0 | 17.4 | 0.00 | 0.04 | 0.04 | 93 | 1010.3 |
| 20260506234558 | 56 | 245 | 12.2 | 16.5 | 0.00 | 0.04 | 0.04 | 93 | 1010.2 |
| 20260506234059 | 56 | 260 | 11.3 | 16.5 | 0.00 | 0.04 | 0.04 | 93 | 1010.2 |
| 20260506233559 | 56 | 267 | 11.3 | 19.1 | 0.00 | 0.04 | 0.04 | 93 | 1010.2 |
| 20260506233107 | 56 | 256 | 13.0 | 19.1 | 0.00 | 0.04 | 0.04 | 93 | 1010.1 |
| 20260506232556 | 56 | 233 | 12.2 | 19.1 | 0.00 | 0.04 | 0.04 | 93 | 1010.1 |
| 20260506232057 | 56 | 276 | 12.2 | 19.1 | 0.00 | 0.04 | 0.04 | 93 | 1010.1 |
| 20260506231557 | 56 | 271 | 13.9 | 19.1 | 0.00 | 0.04 | 0.04 | 93 | 1010.1 |
| 20260506231057 | 56 | 267 | 13.0 | 20.9 | 0.00 | 0.04 | 0.04 | 93 | 1010.1 |
| 20260506230556 | 56 | 282 | 13.0 | 21.7 | 0.00 | 0.04 | 0.04 | 93 | 1010.0 |
| 20260506230056 | 56 | 258 | 15.6 | 22.6 | 0.00 | 0.04 | 0.04 | 93 | 1010.1 |
| 20260506225559 | 56 | 252 | 14.8 | 22.6 | 0.00 | 0.04 | 0.04 | 93 | 1010.0 |
| 20260506225055 | 56 | 250 | 17.4 | 22.6 | 0.00 | 0.04 | 0.04 | 92 | 1009.9 |
| 20260506224555 | 56 | 257 | 17.4 | 26.1 | 0.01 | 0.04 | 0.04 | 92 | 1009.7 |
| 20260506224054 | 56 | 250 | 17.4 | 26.1 | 0.01 | 0.04 | 0.04 | 92 | 1009.8 |
| 20260506223553 | 56 | 255 | 18.2 | 24.3 | 0.01 | 0.04 | 0.04 | 92 | 1009.8 |
| 20260506223105 | 57 | 252 | 17.4 | 26.9 | 0.02 | 0.04 | 0.04 | 92 | 1009.9 |
| 20260506222552 | 57 | 248 | 20.0 | 26.9 | 0.03 | 0.04 | 0.04 | 92 | 1009.9 |
| 20260506222056 | 57 | 238 | 20.9 | 26.1 | 0.03 | 0.04 | 0.04 | 92 | 1009.9 |
| 20260506221552 | 57 | 241 | 15.6 | 24.3 | 0.03 | 0.04 | 0.04 | 93 | 1009.9 |
| 20260506221053 | 57 | 252 | 13.0 | 20.0 | 0.03 | 0.04 | 0.04 | 93 | 1009.8 |
| 20260506220551 | 57 | 265 | 14.8 | 20.9 | 0.03 | 0.04 | 0.04 | 94 | 1009.9 |
| 20260506220051 | 57 | 247 | 14.8 | 20.9 | 0.03 | 0.04 | 0.04 | 94 | 1009.8 |
| 20260506215552 | 57 | 252 | 12.2 | 21.7 | 0.04 | 0.04 | 0.04 | 94 | 1009.8 |
| 20260506215051 | 57 | 257 | 15.6 | 21.7 | 0.04 | 0.04 | 0.04 | 94 | 1009.8 |
| 20260506214600 | 57 | 252 | 15.6 | 24.3 | 0.03 | 0.03 | 0.03 | 94 | 1009.8 |
| 20260506214054 | 57 | 257 | 16.5 | 21.7 | 0.03 | 0.03 | 0.03 | 94 | 1009.7 |
| 20260506213550 | 57 | 261 | 15.6 | 22.6 | 0.03 | 0.03 | 0.03 | 94 | 1009.8 |
| 20260506213050 | 57 | 235 | 13.9 | 22.6 | 0.02 | 0.02 | 0.02 | 94 | 1009.8 |
| 20260506212549 | 57 | 252 | 14.8 | 22.6 | 0.01 | 0.01 | 0.01 | 94 | 1009.8 |
| 20260506212051 | 57 | 270 | 14.8 | 25.2 | 0.01 | 0.01 | 0.01 | 93 | 1009.7 |
| 20260506211548 | 57 | 260 | 18.2 | 26.9 | 0.01 | 0.01 | 0.01 | 93 | 1009.9 |
| 20260506211049 | 57 | 255 | 19.1 | 28.7 | 0.01 | 0.01 | 0.01 | 92 | 1010.0 |
| 20260506210548 | 57 | 251 | 20.9 | 30.4 | 0.01 | 0.01 | 0.01 | 91 | 1010.1 |
| 20260506210047 | 57 | 232 | 16.5 | 26.1 | 0.00 | 0.00 | 0.00 | 91 | 1010.2 |
| 20260506205546 | 58 | 266 | 19.1 | 26.1 | 0.00 | 0.00 | 0.00 | 90 | 1010.2 |
| 20260506205046 | 58 | 281 | 17.4 | 28.7 | 0.00 | 0.00 | 0.00 | 89 | 1010.3 |
| 20260506204548 | 58 | 264 | 20.9 | 28.7 | 0.00 | 0.00 | 0.00 | 88 | 1010.3 |
| 20260506204045 | 59 | 268 | 20.0 | 26.9 | 0.00 | 0.00 | 0.00 | 88 | 1010.3 |
| 20260506203545 | 59 | 257 | 17.4 | 26.9 | 0.00 | 0.00 | 0.00 | 88 | 1010.4 |
| 20260506203047 | 59 | 257 | 18.2 | 23.5 | 0.00 | 0.00 | 0.00 | 88 | 1010.3 |
| 20260506202548 | 59 | 249 | 16.5 | 21.7 | 0.00 | 0.00 | 0.00 | 88 | 1010.2 |
| 20260506202045 | 59 | 260 | 16.5 | 22.6 | 0.00 | 0.00 | 0.00 | 87 | 1010.3 |
| 20260506201545 | 59 | 253 | 15.6 | 24.3 | 0.00 | 0.00 | 0.00 | 87 | 1010.2 |
| 20260506201048 | 60 | 250 | 20.0 | 25.2 | 0.00 | 0.00 | 0.00 | 86 | 1010.3 |
| 20260506200543 | 60 | 252 | 16.5 | 25.2 | 0.00 | 0.00 | 0.00 | 87 | 1010.3 |
| 20260506200112 | 59 | 249 | 16.5 | 25.2 | 0.00 | 0.00 | 0.00 | 87 | 1010.4 |
| 20260506195542 | 59 | 260 | 17.4 | 25.2 | 0.00 | 0.00 | 0.00 | 88 | 1010.5 |
| 20260506195041 | 59 | 252 | 14.8 | 21.7 | 0.00 | 0.00 | 0.00 | 87 | 1010.5 |
| 20260506194541 | 59 | 263 | 14.8 | 21.7 | 0.00 | 0.00 | 0.00 | 87 | 1010.7 |
| 20260506194041 | 59 | 278 | 15.6 | 22.6 | 0.00 | 0.00 | 0.00 | 87 | 1010.9 |
| 20260506193542 | 59 | 250 | 15.6 | 22.6 | 0.00 | 0.00 | 0.00 | 88 | 1010.9 |
| 20260506193042 | 59 | 272 | 14.8 | 25.2 | 0.00 | 0.00 | 0.00 | 88 | 1011.2 |
| 20260506192539 | 59 | 269 | 16.5 | 25.2 | 0.00 | 0.00 | 0.00 | 88 | 1011.1 |
| 20260506192039 | 59 | 257 | 13.0 | 23.5 | 0.00 | 0.00 | 0.00 | 88 | 1011.2 |
| 20260506191539 | 59 | 255 | 14.8 | 23.5 | 0.00 | 0.00 | 0.00 | 88 | 1011.3 |
| 20260506191038 | 59 | 257 | 14.8 | 21.7 | 0.00 | 0.00 | 0.00 | 89 | 1011.1 |
| 20260506190538 | 59 | 242 | 13.9 | 18.2 | 0.00 | 0.00 | 0.00 | 89 | 1011.2 |
| 20260506190036 | 59 | 250 | 11.3 | 20.0 | 0.00 | 0.00 | 0.00 | 89 | 1011.4 |
| 20260506185538 | 58 | 238 | 13.0 | 24.3 | 0.00 | 0.00 | 0.00 | 89 | 1011.3 |
| 20260506185039 | 58 | 257 | 17.4 | 30.4 | 0.00 | 0.00 | 0.00 | 88 | 1011.3 |
| 20260506184535 | 58 | 252 | 20.0 | 30.4 | 0.00 | 0.00 | 0.00 | 88 | 1011.2 |
| 20260506184036 | 58 | 247 | 20.9 | 30.4 | 0.00 | 0.00 | 0.00 | 88 | 1011.4 |
| 20260506183535 | 58 | 255 | 20.9 | 30.4 | 0.00 | 0.00 | 0.00 | 87 | 1011.6 |
| 20260506183035 | 58 | 264 | 22.6 | 27.8 | 0.00 | 0.00 | 0.00 | 87 | 1011.4 |
| 20260506182533 | 58 | 257 | 19.1 | 26.1 | 0.00 | 0.00 | 0.00 | 88 | 1011.8 |
| 20260506182033 | 58 | 260 | 17.4 | 27.8 | 0.00 | 0.00 | 0.00 | 88 | 1011.8 |
| 20260506181536 | 58 | 257 | 17.4 | 29.5 | 0.00 | 0.00 | 0.00 | 88 | 1011.9 |
| 20260506181032 | 58 | 257 | 19.1 | 29.5 | 0.00 | 0.00 | 0.00 | 87 | 1012.1 |
| 20260506180532 | 58 | 262 | 18.2 | 31.3 | 0.00 | 0.00 | 0.00 | 87 | 1012.1 |
| 20260506180038 | 59 | 255 | 19.1 | 35.6 | 0.00 | 0.00 | 0.00 | 86 | 1012.3 |
| 20260506175530 | 59 | 266 | 26.1 | 35.6 | 0.00 | 0.00 | 0.00 | 84 | 1012.3 |
| 20260506175028 | 59 | 259 | 21.7 | 32.2 | 0.00 | 0.00 | 0.00 | 84 | 1012.4 |
| 20260506174530 | 60 | 274 | 24.3 | 32.2 | 0.00 | 0.00 | 0.00 | 83 | 1012.5 |
| 20260506174028 | 60 | 245 | 23.5 | 32.2 | 0.00 | 0.00 | 0.00 | 83 | 1012.3 |
| 20260506173529 | 60 | 257 | 21.7 | 29.5 | 0.00 | 0.00 | 0.00 | 83 | 1012.5 |
| 20260506173028 | 60 | 248 | 20.0 | 27.8 | 0.00 | 0.00 | 0.00 | 82 | 1012.4 |
| 20260506172527 | 61 | 269 | 18.2 | 24.3 | 0.00 | 0.00 | 0.00 | 82 | 1012.5 |
| 20260506172030 | 61 | 250 | 15.6 | 24.3 | 0.00 | 0.00 | 0.00 | 82 | 1012.7 |
| 20260506171543 | 61 | 271 | 13.9 | 25.2 | 0.00 | 0.00 | 0.00 | 82 | 1012.7 |
| 20260506171026 | 61 | 254 | 20.0 | 28.7 | 0.00 | 0.00 | 0.00 | 82 | 1012.6 |
| 20260506170525 | 61 | 259 | 21.7 | 30.4 | 0.00 | 0.00 | 0.00 | 82 | 1012.8 |
| 20260506170025 | 61 | 245 | 20.0 | 32.2 | 0.00 | 0.00 | 0.00 | 82 | 1012.8 |
| 20260506165525 | 61 | 260 | 20.9 | 32.2 | 0.00 | 0.00 | 0.00 | 82 | 1012.7 |
| 20260506165025 | 61 | 245 | 17.4 | 30.4 | 0.00 | 0.00 | 0.00 | 82 | 1012.9 |
| 20260506164524 | 61 | 248 | 22.6 | 30.4 | 0.00 | 0.00 | 0.00 | 82 | 1012.9 |
| 20260506164024 | 61 | 259 | 23.5 | 33.9 | 0.00 | 0.00 | 0.00 | 81 | 1012.7 |
| 20260506163524 | 61 | 248 | 23.5 | 33.9 | 0.00 | 0.00 | 0.00 | 81 | 1012.7 |
| 20260506163028 | 61 | 248 | 20.0 | 33.0 | 0.00 | 0.00 | 0.00 | 82 | 1012.7 |
| 20260506162524 | 61 | 253 | 24.3 | 35.6 | 0.00 | 0.00 | 0.00 | 82 | 1012.8 |
| 20260506162023 | 61 | 252 | 27.8 | 35.6 | 0.00 | 0.00 | 0.00 | 81 | 1012.7 |
| 20260506161535 | 61 | 249 | 23.5 | 32.2 | 0.00 | 0.00 | 0.00 | 81 | 1013.0 |
| 20260506161022 | 61 | 271 | 23.5 | 32.2 | 0.00 | 0.00 | 0.00 | 81 | 1013.2 |
| 20260506160524 | 61 | 248 | 24.3 | 36.5 | 0.00 | 0.00 | 0.00 | 81 | 1013.3 |
| 20260506160020 | 61 | 250 | 26.1 | 36.5 | 0.00 | 0.00 | 0.00 | 82 | 1013.2 |
| 20260506155520 | 61 | 240 | 21.7 | 32.2 | 0.00 | 0.00 | 0.00 | 82 | 1013.4 |
| 20260506155020 | 61 | 262 | 22.6 | 32.2 | 0.00 | 0.00 | 0.00 | 82 | 1013.3 |
| 20260506154520 | 60 | 249 | 26.1 | 32.2 | 0.00 | 0.00 | 0.00 | 82 | 1013.3 |
| 20260506154020 | 60 | 256 | 24.3 | 32.2 | 0.00 | 0.00 | 0.00 | 82 | 1013.4 |
| 20260506153520 | 60 | 259 | 25.2 | 31.3 | 0.00 | 0.00 | 0.00 | 82 | 1013.4 |
| 20260506153020 | 60 | 248 | 23.5 | 33.9 | 0.00 | 0.00 | 0.00 | 82 | 1013.3 |
| 20260506152519 | 60 | 242 | 26.1 | 34.8 | 0.00 | 0.00 | 0.00 | 83 | 1013.2 |
| 20260506152019 | 60 | 251 | 26.1 | 34.8 | 0.00 | 0.00 | 0.00 | 82 | 1013.3 |
| 20260506151519 | 61 | 246 | 22.6 | 33.9 | 0.00 | 0.00 | 0.00 | 82 | 1013.6 |
| 20260506151018 | 61 | 265 | 26.1 | 33.9 | 0.00 | 0.00 | 0.00 | 81 | 1013.6 |
| 20260506150518 | 61 | 260 | 25.2 | 32.2 | 0.00 | 0.00 | 0.00 | 82 | 1013.4 |
| 20260506150023 | 61 | 236 | 24.3 | 34.8 | 0.00 | 0.00 | 0.00 | 82 | 1013.5 |
| 20260506145517 | 60 | 268 | 25.2 | 34.8 | 0.00 | 0.00 | 0.00 | 82 | 1013.5 |
| 20260506145017 | 60 | 245 | 25.2 | 32.2 | 0.00 | 0.00 | 0.00 | 83 | 1013.4 |
| 20260506144516 | 60 | 259 | 22.6 | 33.0 | 0.00 | 0.00 | 0.00 | 83 | 1013.6 |
| 20260506144016 | 59 | 256 | 23.5 | 33.0 | 0.00 | 0.00 | 0.00 | 84 | 1013.5 |
| 20260506143516 | 60 | 251 | 22.6 | 31.3 | 0.00 | 0.00 | 0.00 | 83 | 1013.7 |
| 20260506143016 | 60 | 252 | 21.7 | 32.2 | 0.00 | 0.00 | 0.00 | 83 | 1013.8 |
| 20260506142516 | 60 | 252 | 20.9 | 32.2 | 0.00 | 0.00 | 0.00 | 83 | 1013.9 |
| 20260506142015 | 60 | 255 | 22.6 | 32.2 | 0.00 | 0.00 | 0.00 | 83 | 1013.7 |
| 20260506141515 | 60 | 249 | 21.7 | 32.2 | 0.00 | 0.00 | 0.00 | 83 | 1013.7 |
| 20260506141015 | 60 | 252 | 21.7 | 35.6 | 0.00 | 0.00 | 0.00 | 83 | 1013.7 |
| 20260506140515 | 60 | 258 | 21.7 | 35.6 | 0.00 | 0.00 | 0.00 | 83 | 1013.5 |
| 20260506140016 | 60 | 262 | 24.3 | 35.6 | 0.00 | 0.00 | 0.00 | 83 | 1013.6 |
| 20260506135514 | 60 | 259 | 23.5 | 35.6 | 0.00 | 0.00 | 0.00 | 83 | 1013.6 |
| 20260506135024 | 60 | 265 | 21.7 | 32.2 | 0.00 | 0.00 | 0.00 | 83 | 1013.6 |
| 20260506134526 | 60 | 244 | 23.5 | 32.2 | 0.00 | 0.00 | 0.00 | 82 | 1013.4 |
| 20260506134013 | 60 | 240 | 20.0 | 32.2 | 0.00 | 0.00 | 0.00 | 82 | 1013.7 |
| 20260506133511 | 60 | 252 | 20.9 | 29.5 | 0.00 | 0.00 | 0.00 | 83 | 1013.5 |
| 20260506133012 | 59 | 237 | 21.7 | 29.5 | 0.00 | 0.00 | 0.00 | 84 | 1013.6 |
| 20260506132510 | 59 | 256 | 22.6 | 28.7 | 0.00 | 0.00 | 0.00 | 85 | 1013.4 |
| 20260506132010 | 59 | 266 | 22.6 | 28.7 | 0.00 | 0.00 | 0.00 | 84 | 1013.5 |
| 20260506131510 | 59 | 243 | 19.1 | 30.4 | 0.00 | 0.00 | 0.00 | 84 | 1013.6 |
| 20260506131010 | 59 | 248 | 18.2 | 33.0 | 0.00 | 0.00 | 0.00 | 84 | 1013.9 |
| 20260506130509 | 59 | 261 | 20.9 | 33.0 | 0.00 | 0.00 | 0.00 | 84 | 1013.9 |
| 20260506130010 | 59 | 252 | 20.0 | 28.7 | 0.00 | 0.00 | 0.00 | 84 | 1014.0 |
| 20260506125509 | 59 | 238 | 17.4 | 28.7 | 0.00 | 0.00 | 0.00 | 85 | 1014.0 |
| 20260506125008 | 59 | 255 | 21.7 | 30.4 | 0.00 | 0.00 | 0.00 | 84 | 1014.0 |
| 20260506124513 | 59 | 252 | 23.5 | 31.3 | 0.00 | 0.00 | 0.00 | 84 | 1013.9 |
| 20260506124008 | 59 | 247 | 21.7 | 31.3 | 0.00 | 0.00 | 0.00 | 85 | 1013.9 |
| 20260506123508 | 59 | 245 | 20.9 | 31.3 | 0.00 | 0.00 | 0.00 | 85 | 1013.9 |
| 20260506123007 | 59 | 258 | 24.3 | 31.3 | 0.00 | 0.00 | 0.00 | 85 | 1014.0 |
| 20260506122508 | 59 | 250 | 22.6 | 32.2 | 0.00 | 0.00 | 0.00 | 85 | 1013.8 |
| 20260506122007 | 59 | 255 | 23.5 | 32.2 | 0.00 | 0.00 | 0.00 | 85 | 1013.7 |
| 20260506121509 | 58 | 260 | 20.0 | 32.2 | 0.00 | 0.00 | 0.00 | 86 | 1013.9 |
| 20260506121006 | 58 | 244 | 20.0 | 30.4 | 0.00 | 0.00 | 0.00 | 86 | 1013.9 |
| 20260506120505 | 58 | 255 | 20.9 | 29.5 | 0.00 | 0.00 | 0.00 | 86 | 1013.9 |
| 20260506120010 | 58 | 250 | 22.6 | 29.5 | 0.00 | 0.00 | 0.00 | 86 | 1013.9 |
| 20260506115505 | 58 | 256 | 20.0 | 31.3 | 0.00 | 0.00 | 0.00 | 86 | 1013.9 |
| 20260506115004 | 58 | 250 | 23.5 | 31.3 | 0.00 | 0.00 | 0.00 | 87 | 1013.9 |
| 20260506114508 | 58 | 256 | 23.5 | 29.5 | 0.00 | 0.00 | 0.00 | 86 | 1013.9 |
| 20260506114005 | 58 | 246 | 19.1 | 26.1 | 0.00 | 0.00 | 0.00 | 87 | 1014.0 |
| 20260506113505 | 58 | 254 | 20.9 | 28.7 | 0.00 | 0.00 | 0.00 | 87 | 1013.8 |
| 20260506113006 | 58 | 252 | 19.1 | 28.7 | 0.00 | 0.00 | 0.00 | 87 | 1014.0 |
| 20260506112505 | 58 | 246 | 19.1 | 27.8 | 0.00 | 0.00 | 0.00 | 87 | 1014.0 |
| 20260506112004 | 58 | 245 | 21.7 | 27.8 | 0.00 | 0.00 | 0.00 | 87 | 1013.9 |
| 20260506111504 | 57 | 248 | 21.7 | 29.5 | 0.00 | 0.00 | 0.00 | 87 | 1013.9 |
| 20260506111004 | 57 | 247 | 24.3 | 30.4 | 0.00 | 0.00 | 0.00 | 88 | 1013.9 |
| 20260506110504 | 57 | 254 | 22.6 | 30.4 | 0.00 | 0.00 | 0.00 | 88 | 1014.0 |
| 20260506110009 | 57 | 267 | 20.0 | 29.5 | 0.00 | 0.00 | 0.00 | 88 | 1014.0 |
| 20260506105503 | 57 | 256 | 23.5 | 29.5 | 0.00 | 0.00 | 0.00 | 88 | 1013.9 |
| 20260506105003 | 57 | 261 | 22.6 | 28.7 | 0.00 | 0.00 | 0.00 | 88 | 1014.0 |
| 20260506104503 | 57 | 248 | 18.2 | 31.3 | 0.00 | 0.00 | 0.00 | 88 | 1014.0 |
| 20260506104002 | 57 | 244 | 22.6 | 31.3 | 0.00 | 0.00 | 0.00 | 88 | 1013.9 |
| 20260506103502 | 57 | 253 | 21.7 | 30.4 | 0.00 | 0.00 | 0.00 | 88 | 1013.8 |
| 20260506103007 | 57 | 263 | 23.5 | 31.3 | 0.00 | 0.00 | 0.00 | 88 | 1013.9 |
| 20260506102502 | 57 | 253 | 25.2 | 31.3 | 0.00 | 0.00 | 0.00 | 88 | 1013.8 |
| 20260506102101 | 57 | 247 | 23.5 | 30.4 | 0.00 | 0.00 | 0.00 | 88 | 1013.7 |
| 20260506101600 | 57 | 255 | 23.5 | 30.4 | 0.00 | 0.00 | 0.00 | 88 | 1013.6 |
| 20260506101059 | 57 | 248 | 21.7 | 30.4 | 0.00 | 0.00 | 0.00 | 88 | 1013.7 |
| 20260506100558 | 57 | 239 | 22.6 | 28.7 | 0.00 | 0.00 | 0.00 | 89 | 1013.5 |
| 20260506100104 | 57 | 249 | 22.6 | 27.8 | 0.00 | 0.00 | 0.00 | 89 | 1013.7 |
| 20260506095558 | 57 | 253 | 20.0 | 26.9 | 0.00 | 0.00 | 0.00 | 89 | 1013.6 |
| 20260506095058 | 57 | 241 | 20.0 | 30.4 | 0.00 | 0.00 | 0.00 | 89 | 1013.6 |
| 20260506094557 | 57 | 258 | 20.0 | 30.4 | 0.00 | 0.00 | 0.00 | 89 | 1013.6 |
| 20260506094057 | 57 | 259 | 22.6 | 29.5 | 0.00 | 0.00 | 0.00 | 89 | 1013.6 |
| 20260506093559 | 57 | 246 | 21.7 | 31.3 | 0.00 | 0.00 | 0.00 | 88 | 1013.7 |
| 20260506093058 | 57 | 240 | 24.3 | 31.3 | 0.00 | 0.00 | 0.00 | 89 | 1013.8 |
| 20260506092552 | 57 | 250 | 20.0 | 28.7 | 0.00 | 0.00 | 0.00 | 88 | 1013.7 |
| 20260506092053 | 57 | 264 | 20.9 | 30.4 | 0.00 | 0.00 | 0.00 | 89 | 1013.3 |
| 20260506091551 | 57 | 255 | 21.7 | 31.3 | 0.00 | 0.00 | 0.00 | 88 | 1013.4 |
| 20260506091051 | 57 | 242 | 24.3 | 31.3 | 0.00 | 0.00 | 0.00 | 88 | 1013.5 |
| 20260506090551 | 57 | 242 | 24.3 | 31.3 | 0.00 | 0.00 | 0.00 | 88 | 1013.5 |
| 20260506090050 | 57 | 248 | 21.7 | 29.5 | 0.00 | 0.00 | 0.00 | 89 | 1013.7 |
| 20260506085548 | 57 | 250 | 20.9 | 29.5 | 0.00 | 0.00 | 0.00 | 89 | 1013.9 |
| 20260506085048 | 57 | 249 | 20.9 | 29.5 | 0.00 | 0.00 | 0.00 | 89 | 1013.9 |
| 20260506084548 | 57 | 252 | 19.1 | 27.8 | 0.00 | 0.00 | 0.00 | 89 | 1013.9 |
| 20260506084049 | 57 | 253 | 20.9 | 29.5 | 0.00 | 0.00 | 0.00 | 89 | 1014.0 |
| 20260506083547 | 57 | 252 | 22.6 | 29.5 | 0.00 | 0.00 | 0.00 | 89 | 1014.0 |
| 20260506083107 | 57 | 241 | 17.4 | 27.8 | 0.00 | 0.00 | 0.00 | 89 | 1014.0 |
| 20260506082546 | 57 | 242 | 20.9 | 29.5 | 0.00 | 0.00 | 0.00 | 89 | 1014.0 |
| 20260506082048 | 57 | 253 | 22.6 | 29.5 | 0.00 | 0.00 | 0.00 | 88 | 1013.7 |
| 20260506081549 | 57 | 246 | 22.6 | 30.4 | 0.00 | 0.00 | 0.00 | 88 | 1013.7 |
| 20260506081045 | 57 | 258 | 21.7 | 32.2 | 0.00 | 0.00 | 0.00 | 88 | 1013.9 |
| 20260506080545 | 58 | 258 | 24.3 | 32.2 | 0.00 | 0.00 | 0.00 | 88 | 1013.9 |
| 20260506073043 | 58 | 258 | 23.5 | 33.0 | 0.00 | 0.00 | 0.00 | 86 | 1014.1 |
| 20260506072540 | 58 | 252 | 21.7 | 32.2 | 0.00 | 0.00 | 0.00 | 86 | 1014.1 |
| 20260506072040 | 58 | 252 | 22.6 | 31.3 | 0.00 | 0.00 | 0.00 | 86 | 1014.0 |
| 20260506071540 | 58 | 251 | 24.3 | 34.8 | 0.00 | 0.00 | 0.00 | 86 | 1014.0 |
| 20260506071039 | 58 | 276 | 23.5 | 34.8 | 0.00 | 0.00 | 0.00 | 86 | 1013.9 |
| 20260506070539 | 58 | 249 | 24.3 | 32.2 | 0.00 | 0.00 | 0.00 | 86 | 1014.0 |
| 20260506062035 | 58 | 242 | 24.3 | 31.3 | 0.00 | 0.00 | 0.00 | 86 | 1014.0 |
| 20260506061539 | 58 | 252 | 22.6 | 31.3 | 0.00 | 0.00 | 0.00 | 86 | 1014.0 |
| 20260506061035 | 58 | 248 | 25.2 | 33.9 | 0.00 | 0.00 | 0.00 | 86 | 1014.0 |
| 20260506060532 | 58 | 255 | 22.6 | 35.6 | 0.00 | 0.00 | 0.00 | 86 | 1014.0 |
| 20260506051027 | 58 | 245 | 23.5 | 33.9 | 0.00 | 0.00 | 0.00 | 85 | 1014.3 |
| 20260506050527 | 58 | 245 | 24.3 | 33.0 | 0.00 | 0.00 | 0.00 | 85 | 1014.3 |
| 20260506045024 | 58 | 253 | 24.3 | 33.9 | 0.00 | 0.00 | 0.00 | 85 | 1014.4 |
| 20260506044523 | 58 | 255 | 21.7 | 33.0 | 0.00 | 0.00 | 0.00 | 85 | 1014.4 |
| 20260506044027 | 59 | 248 | 26.1 | 33.0 | 0.00 | 0.00 | 0.00 | 85 | 1014.3 |
| 20260506043520 | 59 | 243 | 21.7 | 33.0 | 0.00 | 0.00 | 0.00 | 84 | 1014.5 |
| 20260506043020 | 59 | 250 | 24.3 | 34.8 | 0.00 | 0.00 | 0.00 | 84 | 1014.5 |
| 20260506042520 | 59 | 240 | 27.8 | 34.8 | 0.00 | 0.00 | 0.00 | 84 | 1014.4 |
| 20260506042019 | 59 | 247 | 24.3 | 33.0 | 0.00 | 0.00 | 0.00 | 84 | 1014.4 |
| 20260506041518 | 59 | 251 | 23.5 | 33.0 | 0.00 | 0.00 | 0.00 | 84 | 1014.3 |
| 20260506041017 | 59 | 248 | 23.5 | 36.5 | 0.00 | 0.00 | 0.00 | 84 | 1014.4 |
| 20260506040519 | 59 | 247 | 22.6 | 36.5 | 0.00 | 0.00 | 0.00 | 83 | 1014.4 |
| 20260506040018 | 59 | 250 | 25.2 | 33.0 | 0.00 | 0.00 | 0.00 | 83 | 1014.5 |
| 20260506035514 | 59 | 264 | 22.6 | 30.4 | 0.00 | 0.00 | 0.00 | 83 | 1014.5 |
| 20260506035014 | 59 | 249 | 22.6 | 33.9 | 0.00 | 0.00 | 0.00 | 82 | 1014.5 |
| 20260506034514 | 59 | 244 | 23.5 | 33.9 | 0.00 | 0.00 | 0.00 | 82 | 1014.4 |
| 20260506034013 | 59 | 255 | 24.3 | 32.2 | 0.00 | 0.00 | 0.00 | 81 | 1014.3 |
| 20260506033512 | 59 | 247 | 22.6 | 33.9 | 0.00 | 0.00 | 0.00 | 80 | 1014.5 |
| 20260506033015 | 60 | 260 | 25.2 | 33.9 | 0.00 | 0.00 | 0.00 | 80 | 1014.4 |
| 20260506032512 | 60 | 233 | 22.6 | 33.9 | 0.00 | 0.00 | 0.00 | 80 | 1014.3 |
| 20260506032012 | 59 | 250 | 20.9 | 35.6 | 0.00 | 0.00 | 0.00 | 80 | 1014.4 |
| 20260506031514 | 59 | 252 | 24.3 | 33.0 | 0.00 | 0.00 | 0.00 | 80 | 1014.3 |
| 20260506031013 | 59 | 252 | 23.5 | 33.0 | 0.00 | 0.00 | 0.00 | 80 | 1014.2 |
| 20260506030514 | 59 | 256 | 23.5 | 30.4 | 0.00 | 0.00 | 0.00 | 80 | 1014.3 |
| 20260506030014 | 59 | 249 | 20.0 | 30.4 | 0.00 | 0.00 | 0.00 | 80 | 1014.5 |
| 20260506025511 | 59 | 255 | 20.9 | 31.3 | 0.00 | 0.00 | 0.00 | 80 | 1014.3 |
| 20260506025011 | 59 | 269 | 23.5 | 31.3 | 0.00 | 0.00 | 0.00 | 80 | 1014.4 |
| 20260506024526 | 59 | 251 | 20.9 | 30.4 | 0.00 | 0.00 | 0.00 | 80 | 1014.3 |
| 20260506024011 | 59 | 245 | 22.6 | 30.4 | 0.00 | 0.00 | 0.00 | 80 | 1014.3 |
| 20260506023511 | 59 | 272 | 20.9 | 32.2 | 0.00 | 0.00 | 0.00 | 79 | 1014.3 |
| 20260506023011 | 59 | 248 | 22.6 | 32.2 | 0.00 | 0.00 | 0.00 | 79 | 1014.3 |
| 20260506022510 | 59 | 238 | 22.6 | 29.5 | 0.00 | 0.00 | 0.00 | 80 | 1014.2 |
| 20260506022014 | 59 | 256 | 20.9 | 29.5 | 0.00 | 0.00 | 0.00 | 79 | 1014.4 |
| 20260506021511 | 60 | 257 | 23.5 | 33.0 | 0.00 | 0.00 | 0.00 | 78 | 1014.3 |
| 20260506021010 | 60 | 257 | 22.6 | 33.0 | 0.00 | 0.00 | 0.00 | 78 | 1014.4 |
| 20260506020510 | 60 | 258 | 19.1 | 30.4 | 0.00 | 0.00 | 0.00 | 78 | 1014.2 |
| 20260506020009 | 60 | 248 | 21.7 | 31.3 | 0.00 | 0.00 | 0.00 | 77 | 1014.2 |
| 20260506015513 | 60 | 257 | 21.7 | 31.3 | 0.00 | 0.00 | 0.00 | 77 | 1014.1 |
| 20260506015011 | 60 | 261 | 21.7 | 33.0 | 0.00 | 0.00 | 0.00 | 77 | 1014.2 |
| 20260506014513 | 60 | 259 | 22.6 | 33.0 | 0.00 | 0.00 | 0.00 | 77 | 1014.1 |
| 20260506014007 | 60 | 253 | 20.9 | 32.2 | 0.00 | 0.00 | 0.00 | 77 | 1014.1 |
| 20260506013507 | 60 | 246 | 23.5 | 32.2 | 0.00 | 0.00 | 0.00 | 76 | 1014.0 |
| 20260506013007 | 60 | 257 | 20.9 | 32.2 | 0.00 | 0.00 | 0.00 | 76 | 1014.0 |